Regional Weather Roundup
Issued by NWS

Home | Current Version | Previous Version | Text Only | Print | Product List | Glossary On
Versions: 1 2 3 4 5 6 7 8 9 10 11 12 13 14 15 16 17 18 19 20 21 22 23 24 25 26 27 28 29 30 31 32 33 34 35 36 37 38 39 40 41 42 43 44 45 46 47 48 49 50
000
ASUS44 KOUN 220110
RWROK

WEATHER ROUNDUP FOR OKLAHOMA
NATIONAL WEATHER SERVICE NORMAN OK
700 PM CST SUN DEC 21 2014

NOTE: "FAIR" INDICATES FEW OR NO CLOUDS BELOW 12,000 FEET WITH NO
      SIGNIFICANT WEATHER AND/OR OBSTRUCTIONS TO VISIBILITY.

OKZ001>007-009>012-014-015-017-220200-
NORTHWEST OKLAHOMA AND THE PANHANDLE

CITY           SKY/WX    TMP DP  RH WIND       PRES   REMARKS
GAGE           CLOUDY    46  43  89 S16       29.61F
ENID/WOODRING  MOCLDY    46  45  93 SE15      29.69F FOG
$$

OKZ016-021>023-033>039-044-045-220200-
SOUTHWEST OKLAHOMA

CITY           SKY/WX    TMP DP  RH WIND       PRES   REMARKS
LAWTON/REGL    CLEAR     48  44  86 SE14      29.70F
LAWTON/FT SILL CLEAR     47  44  90 SE13      29.69F
FREDERICK      PTCLDY    50  44  80 SE15      29.64F
CLINTON        PTCLDY    46  43  89 SE15      29.67F
HOBART         PTCLDY    47  44  90 SE14      29.67F
ALTUS AFB      PTCLDY    48  48  99 E12       29.66S
$$

OKZ018>020-024>031-220200-
CENTRAL OKLAHOMA

CITY           SKY/WX    TMP DP  RH WIND       PRES   REMARKS
OKLAHOMA CITY  CLOUDY    47  43  86 SE18      29.72F
OKC/WILEY POST CLOUDY    47  44  90 SE17G25   29.72F FOG
OKC/TINKER AFB CLOUDY    45  44  94 SE15      29.73F
STILLWATER     CLOUDY    46  43  89 SE16      29.74F
GUTHRIE        CLOUDY    46  44  93 SE12      29.73F FOG
$$

OKZ008-013-054>072-220200-
NORTHEAST OKLAHOMA

CITY           SKY/WX    TMP DP  RH WIND       PRES   REMARKS
TULSA          CLOUDY    48  41  76 S12G21    29.82F
TULSA/JONES    CLOUDY    47  41  80 S13G21    29.81F
PONCA CITY     CLOUDY    46  43  89 SE17G24   29.74F
BARTLESVILLE   CLOUDY    46  41  82 S9        29.81F
MUSKOGEE       CLOUDY    47  40  76 SE13G21   29.86F
$$

OKZ032-040>043-046>053-073>077-220200-
SOUTH CENTRAL/SOUTHEAST OKLAHOMA

CITY           SKY/WX    TMP DP  RH WIND       PRES   REMARKS
ARDMORE/DWNTWN CLOUDY    46  45  93 SE8       29.80S
MCALESTER      CLOUDY    46  44  93 SE7       29.84F FOG
$$



USA.gov is the U.S. government's official web portal to all federal, state and local government web resources and services.